Hourly Weather Lukyanovo

Today, 7 May, Friday

Time Temperature Precipitation Wind Pressure Humidity
00:00 +13°C° 0 mm 3 mps 746 mmHg 72%
01:00 +12°C° 0 mm 3 mps 746 mmHg 77%
02:00 +12°C° 0 mm 2 mps 746 mmHg 83%
03:00 +10°C° 0 mm 2 mps 746 mmHg 88%
04:00 +10°C° 0.6 mm 2 mps 746 mmHg 90%
05:00 +9°C° 0.6 mm 3 mps 746 mmHg 92%
06:00 +7°C° 0.6 mm 4 mps 746 mmHg 93%
07:00 +8°C° 1.6 mm 3 mps 747 mmHg 93%
08:00 +7°C° 1.6 mm 3 mps 748 mmHg 92%
09:00 +7°C° 1.6 mm 3 mps 748 mmHg 91%
10:00 +8°C° 0.4 mm 3 mps 749 mmHg 85%
11:00 +9°C° 0.4 mm 2 mps 749 mmHg 79%
12:00 +10°C° 0.4 mm 2 mps 749 mmHg 73%
13:00 +11°C° 0 mm 3 mps 749 mmHg 65%
14:00 +13°C° 0 mm 3 mps 749 mmHg 56%
15:00 +14°C° 0 mm 4 mps 750 mmHg 47%
16:00 +13°C° 0 mm 3 mps 750 mmHg 51%
17:00 +13°C° 0 mm 3 mps 750 mmHg 54%
18:00 +14°C° 0 mm 2 mps 750 mmHg 58%
19:00 +12°C° 0 mm 2 mps 751 mmHg 60%
20:00 +10°C° 0 mm 2 mps 751 mmHg 62%
21:00 +8°C° 0 mm 2 mps 751 mmHg 64%
22:00 +8°C° 0 mm 2 mps 751 mmHg 65%
23:00 +7°C° 0 mm 2 mps 752 mmHg 65%

Tomorrow, 8 May, Saturday

Time Temperature Precipitation Wind Pressure Humidity
00:00 +7°C° 0 mm 2 mps 752 mmHg 66%
01:00 +6°C° 0 mm 2 mps 752 mmHg 69%
02:00 +6°C° 0 mm 2 mps 752 mmHg 73%
03:00 +4°C° 0 mm 3 mps 752 mmHg 76%
04:00 +5°C° 0 mm 3 mps 751 mmHg 78%
05:00 +5°C° 0 mm 3 mps 751 mmHg 80%
06:00 +5°C° 0 mm 3 mps 751 mmHg 82%
07:00 +7°C° 0 mm 4 mps 751 mmHg 78%
08:00 +8°C° 0 mm 4 mps 750 mmHg 73%
09:00 +10°C° 0 mm 5 mps 750 mmHg 69%
10:00 +12°C° 0 mm 5 mps 750 mmHg 63%
11:00 +13°C° 0 mm 6 mps 749 mmHg 57%
12:00 +14°C° 0 mm 7 mps 748 mmHg 51%
13:00 +14°C° 0 mm 7 mps 748 mmHg 53%
14:00 +15°C° 0 mm 6 mps 747 mmHg 55%
15:00 +15°C° 0 mm 6 mps 746 mmHg 57%
16:00 +14°C° 0.3 mm 6 mps 746 mmHg 65%
17:00 +13°C° 0.3 mm 6 mps 746 mmHg 73%
18:00 +10°C° 0.3 mm 5 mps 745 mmHg 81%
19:00 +12°C° 0.3 mm 5 mps 745 mmHg 84%
20:00 +12°C° 0.3 mm 5 mps 745 mmHg 87%
21:00 +12°C° 0.3 mm 5 mps 745 mmHg 90%
22:00 +12°C° 0.7 mm 5 mps 745 mmHg 92%
23:00 +10°C° 0.7 mm 5 mps 745 mmHg 94%

Day after tomorrow, 9 May, Sunday

Time Temperature Precipitation Wind Pressure Humidity
00:00 +11°C° 0.7 mm 4 mps 744 mmHg 96%
01:00 +11°C° 0.8 mm 4 mps 745 mmHg 95%
02:00 +10°C° 0.8 mm 4 mps 745 mmHg 95%
03:00 +8°C° 0.8 mm 4 mps 745 mmHg 94%
04:00 +8°C° 0.1 mm 4 mps 746 mmHg 93%
05:00 +7°C° 0.1 mm 5 mps 747 mmHg 92%
06:00 +6°C° 0.1 mm 5 mps 747 mmHg 91%
07:00 +6°C° 0 mm 5 mps 748 mmHg 89%
08:00 +6°C° 0 mm 5 mps 749 mmHg 87%
09:00 +5°C° 0 mm 5 mps 749 mmHg 86%
10:00 +6°C° 0 mm 5 mps 750 mmHg 83%
11:00 +6°C° 0 mm 5 mps 751 mmHg 80%
12:00 +7°C° 0 mm 4 mps 752 mmHg 77%
13:00 +7°C° 0 mm 4 mps 752 mmHg 76%
14:00 +7°C° 0 mm 4 mps 753 mmHg 75%
15:00 +7°C° 0 mm 4 mps 753 mmHg 73%
16:00 +7°C° 0 mm 4 mps 754 mmHg 74%
17:00 +8°C° 0 mm 3 mps 754 mmHg 74%
18:00 +8°C° 0 mm 3 mps 754 mmHg 75%
19:00 +7°C° 0 mm 3 mps 755 mmHg 76%
20:00 +7°C° 0 mm 3 mps 756 mmHg 78%
21:00 +6°C° 0 mm 2 mps 756 mmHg 79%
22:00 +5°C° 0 mm 2 mps 757 mmHg 81%
23:00 +5°C° 0 mm 2 mps 757 mmHg 83%

10 May, Monday

Time Temperature Precipitation Wind Pressure Humidity
00:00 +3°C° 0 mm 3 mps 758 mmHg 85%
01:00 +3°C° 0 mm 3 mps 758 mmHg 86%
02:00 +2°C° 0 mm 3 mps 758 mmHg 87%
03:00 +2°C° 0 mm 3 mps 759 mmHg 88%
04:00 +2°C° 0 mm 3 mps 759 mmHg 86%
05:00 +3°C° 0 mm 3 mps 760 mmHg 85%
06:00 +3°C° 0 mm 3 mps 761 mmHg 83%
07:00 +5°C° 0 mm 4 mps 761 mmHg 75%
08:00 +7°C° 0 mm 4 mps 761 mmHg 67%
09:00 +9°C° 0 mm 5 mps 761 mmHg 59%
10:00 +10°C° 0 mm 5 mps 761 mmHg 55%
11:00 +12°C° 0 mm 5 mps 761 mmHg 51%
12:00 +14°C° 0 mm 5 mps 761 mmHg 47%
13:00 +14°C° 0 mm 5 mps 761 mmHg 46%
14:00 +14°C° 0 mm 4 mps 761 mmHg 45%
15:00 +15°C° 0 mm 4 mps 761 mmHg 44%
16:00 +14°C° 0 mm 4 mps 761 mmHg 49%
17:00 +14°C° 0 mm 4 mps 761 mmHg 54%
18:00 +13°C° 0 mm 3 mps 761 mmHg 59%
19:00 +11°C° 0 mm 3 mps 762 mmHg 64%
20:00 +10°C° 0 mm 3 mps 762 mmHg 68%
21:00 +8°C° 0 mm 3 mps 762 mmHg 73%
22:00 +7°C° 0 mm 3 mps 762 mmHg 74%
23:00 +7°C° 0 mm 3 mps 762 mmHg 76%

11 May, Tuesday

Time Temperature Precipitation Wind Pressure Humidity
00:00 +5°C° 0 mm 3 mps 762 mmHg 77%
01:00 +5°C° 0 mm 3 mps 762 mmHg 78%
02:00 +5°C° 0 mm 3 mps 762 mmHg 79%
03:00 +4°C° 0 mm 3 mps 762 mmHg 80%
04:00 +5°C° 0 mm 3 mps 763 mmHg 79%
05:00 +5°C° 0 mm 3 mps 763 mmHg 78%
06:00 +7°C° 0 mm 3 mps 763 mmHg 77%
07:00 +9°C° 0 mm 3 mps 763 mmHg 69%
08:00 +11°C° 0 mm 4 mps 763 mmHg 61%
09:00 +13°C° 0 mm 5 mps 763 mmHg 54%
10:00 +14°C° 0 mm 5 mps 763 mmHg 50%
11:00 +16°C° 0 mm 5 mps 763 mmHg 46%
12:00 +17°C° 0 mm 5 mps 762 mmHg 43%
13:00 +17°C° 0 mm 5 mps 762 mmHg 43%
14:00 +19°C° 0 mm 5 mps 762 mmHg 43%
15:00 +19°C° 0 mm 5 mps 761 mmHg 42%
16:00 +19°C° 0 mm 4 mps 761 mmHg 48%
17:00 +18°C° 0 mm 4 mps 761 mmHg 54%
18:00 +17°C° 0 mm 3 mps 761 mmHg 60%
19:00 +16°C° 0 mm 3 mps 761 mmHg 66%
20:00 +13°C° 0 mm 3 mps 761 mmHg 71%
21:00 +11°C° 0 mm 3 mps 761 mmHg 76%
22:00 +10°C° 0 mm 3 mps 761 mmHg 78%
23:00 +9°C° 0 mm 3 mps 761 mmHg 80%

12 May, Wednesday

Time Temperature Precipitation Wind Pressure Humidity
00:00 +9°C° 0 mm 3 mps 761 mmHg 82%
01:00 +8°C° 0 mm 3 mps 761 mmHg 83%
02:00 +8°C° 0 mm 3 mps 761 mmHg 84%
03:00 +8°C° 0 mm 3 mps 761 mmHg 85%
04:00 +8°C° 0 mm 3 mps 761 mmHg 84%
05:00 +9°C° 0 mm 3 mps 760 mmHg 82%
06:00 +9°C° 0 mm 3 mps 760 mmHg 81%
07:00 +11°C° 0 mm 3 mps 760 mmHg 73%
08:00 +14°C° 0 mm 4 mps 760 mmHg 66%
09:00 +16°C° 0 mm 5 mps 760 mmHg 58%
10:00 +17°C° 0 mm 5 mps 760 mmHg 54%
11:00 +19°C° 0 mm 5 mps 760 mmHg 51%
12:00 +21°C° 0 mm 5 mps 760 mmHg 47%
13:00 +21°C° 0 mm 5 mps 759 mmHg 47%
14:00 +22°C° 0 mm 5 mps 759 mmHg 48%
15:00 +22°C° 0 mm 5 mps 759 mmHg 48%
16:00 +21°C° 0 mm 4 mps 759 mmHg 53%
17:00 +21°C° 0 mm 4 mps 758 mmHg 59%
18:00 +20°C° 0 mm 3 mps 758 mmHg 64%
19:00 +18°C° 0 mm 3 mps 758 mmHg 69%
20:00 +17°C° 0 mm 3 mps 758 mmHg 74%
21:00 +14°C° 0 mm 3 mps 758 mmHg 79%
22:00 +13°C° 0 mm 3 mps 758 mmHg 81%
23:00 +12°C° 0 mm 3 mps 758 mmHg 83%
Show more

We Need Your Consent

Meteoprog and our Service Providers may store and access personal data such as cookies, device identifiers or other similar technologies on your device and process such data to personalise content and ads, as well as provide social media features and to analyse the traffic.

  • Store and/or access information on your device

    Cookies, device identifiers or other information can be stored or accessed on your device for the purposes indicated above.

  • Personalised ads and content, ad and content measurement, audience insights, and products development

    Ads and content can be personalised based on a profile. More data can be added to better personalise ads and content. Ad and content performance can be measured. Insights about the audience who saw the ads and content can be derived. Such data can be used to develop or improve user’s experience, systems and software.

By clicking ‘I Agree’ you will allow the use of indicated cookies, device identifiers, web beacons or other similar technologies. Your settings can be changed in the browser on your device.

For certain purposes, legitimate interests may be relied on, rather than consent. You can read more about this in our Privacy and Cookie Policy.